Regional Weather Roundup
Issued by NWS Lake Charles, LA

Current Version | Previous Version | Text Only | Print | Product List | Glossary On
Versions: 1 2 3 4 5 6 7 8 9 10 11 12 13 14 15 16 17 18 19 20 21 22 23 24 25 26 27 28 29 30 31 32 33 34 35 36 37 38 39 40 41 42 43 44 45 46 47 48 49 50
000
ASUS44 KLCH 041510
RWRLCH
RWRLCH
REGIONAL WEATHER ROUNDUP
NATIONAL WEATHER SERVICE LAKE CHARLES LA
1000 AM CDT TUE AUG 04 2015

Note: "fair" indicates few or no clouds below 12,000 feet with no
significant weather and/or obstructions to visibility.


ACROSS SOUTHEAST TEXAS

CITY           SKY/WX    TMP DP  RH WIND       PRES   REMARKS
BEAUMONT       MOSUNNY   88  76  67 VRB6      29.99R
BEAUMONT CITY    N/A     87  75  68 S6        30.00S
ORANGE         SUNNY     87  69  55 CALM      30.01S
JASPER         SUNNY     87  75  67 SW7       30.03R
$$

ACROSS CENTRAL LOUISIANA

CITY           SKY/WX    TMP DP  RH WIND       PRES   REMARKS
LEESVILLE      SUNNY     87  71  58 VRB6      29.99R
FULLERTON        N/A     89  71  55 CALM      29.97R
ALEXANDRIA INT SUNNY     88  71  57 W7        29.97R
ESLER FIELD    SUNNY     92  72  51 VRB6      29.99R
DERIDDER         N/A     85  74  68 CALM      30.02R
OAKDALE          N/A     88  72  59 W3        29.99S
OPELOUSAS        N/A     85  75  72 NW3       29.99S
$$

ACROSS SOUTHWEST AND SOUTH CENTRAL LOUISIANA

CITY           SKY/WX    TMP DP  RH WIND       PRES   REMARKS
SULPHUR        SUNNY     89  73  60 W6        30.00F
LAKE CHARLES   SUNNY     88  74  63 NW8       29.99S
CHENNAULT INT  NOT AVBL
CAMERON PHI    SUNNY     86  75  70 NW7       30.03R
DEQUINCY         N/A     85  73  65 SW7       30.00S
JENNINGS         N/A     84  75  74 CALM      30.00S
LAFAYETTE      SUNNY     88  75  65 VRB5      30.00R
NEW IBERIA     MOSUNNY   87  76  69 NE3       30.00R
ABBEVILLE        N/A     86  76  71 NW8       30.00R
PATTERSON      PTSUNNY   84  75  74 N8        30.00R
SALT POINT       N/A     82  79  90 MISG      29.97R
$$

SELECTED SITES ACROSS THE REGION

CITY           SKY/WX    TMP DP  RH WIND       PRES   REMARKS
HOUSTON BUSH   PTSUNNY   88  75  65 SW6       29.99R
HOUSTON HOBBY  MOSUNNY   87  76  69 SW9       29.98S
GALVESTON      MOSUNNY   89  77  67 VRB3      29.99S HX 101
COLLEGE STAT   MOSUNNY   85  75  72 SW10G17   29.99S
CONROE         MOSUNNY   86  72  62 SW9       30.00S
HUNTSVILLE     SUNNY     85  75  72 W8        30.00S
LUFKIN         SUNNY     84  74  71 W6        30.00S
SHREVEPORT     MOSUNNY   89  71  55 W5        29.98S
MONROE         SUNNY     91  73  55 CALM      29.98F
NATCHEZ MS     SUNNY     88  75  66 CALM      30.00S
BATON ROUGE    MOSUNNY   87  75  67 NE6       29.99R
N.O. INTL ARPT PTSUNNY   83  73  72 S12       30.00R
SLIDELL        MOSUNNY   87  77  72 S6        29.99F
$$

MARINE REPORTS

STATION/POSITION TIME  TEMP    WIND        PRES    VSBY  WAVE
                       AIR SEA DIR/SP/G                  HT/PER
                 (UTC) (F)     (DEG/KT/KT) (MB)    (MI)  (FT/S)
BUOY 30 S HIGH I 1450   86 87  230/  6/  6 1015.2R         2/ 4
SEA RIM ST PARK  1500   86     280/  4/  6 1016.2R
PORT ARTHUR      1400      88  290/  6/  9 1015.7R
SABINE PASS N    1400   84 88  330/  6/  8 1015.8R
TEXAS POINT      NOT AVBL
CALCASIEU PASS   1400   83 88  360/  7/  9 1014.9R
LK CHARLES BEACH 1400   82 88                N/A
MARSH ISLAND     1400   83     340/ 11/ 13   N/A           0
FRESH WATER LOCK 1400   83 89  320/  6/ 10 1015.3R
AMERADA PASS     1400   82 85  310/  5/  8 1014.2S
$$


USA.gov is the U.S. government's official web portal to all federal, state and local government web resources and services.